Weather History for Hayward, CA

Change the Weather History Date:

Saturday, March 8, 2014

  Actual Average Record
Temperature  
Mean Temperature 57 °F 55 °F  
Max Temperature 69 °F 63 °F 77 °F (2004)
Min Temperature 45 °F 47 °F 36 °F (2002)
Degree Days  
Heating Degree Days 8    
Month to date heating degree days 66  
Since 1 July heating degree days 1584  
Cooling Degree Days 0    
Month to date cooling degree days 0  
Year to date cooling degree days 0  
Growing Degree Days 6 (Base 50)    
Moisture  
Dew Point 48 °F    
Average Humidity 74    
Maximum Humidity 100    
Minimum Humidity 47    
Precipitation  
Precipitation 0.00 in - 0.11 in (1999)
Month to date precipitation 0.26  
Year to date precipitation 2.63  
Since 1 July precipitation 3.83  
Sea Level Pressure  
Sea Level Pressure 30.18 in    
Wind  
Wind Speed 4 mph (NNE)    
Max Wind Speed 10 mph    
Max Gust Speed 14 mph    
Visibility 10 miles    
Events      
T = Trace of Precipitation, MM = Missing Value Source: NWS Daily Summary

Daily Weather History Graph

Daily Weather History Graph

Search for Another Location

Airport:

Trip Planner

Search our weather history database for the weather conditions in past years. The results will help you decide how hot, cold, wet, or windy it might be!

Date:

Astronomy

Mar. 08, 2014 Rise Set
Actual Time 6:29 AM PST 6:09 PM PST
Civil Twilight 6:03 AM PST 6:35 PM PST
Nautical Twilight 5:33 AM PST 7:05 PM PST
Astronomical Twilight 5:02 AM PST 7:36 PM PST
Moon 11:22 AM PST (3/8) 1:04 AM PST (3/8)
Length of Visible Light 12h 31m
Length of Day
11h 39m
First Quarter, 53% of the Moon is Illuminated
Mar 8
First Quarter
Mar 16
Full
Mar 23
Last Quarter
Mar 30
New
Apr 7
First Quarter

Hourly Weather History & Observations

Time (PST) Temp. Windchill Dew Point Humidity Pressure Visibility Wind Dir Wind Speed Gust Speed Precip Events Conditions
12:54 AM 48.9 °F - 46.0 °F 90% 30.17 in 10.0 mi ENE 3.5 mph - N/A   Clear
1:54 AM 48.0 °F - 45.0 °F 89% 30.16 in 10.0 mi ENE 5.8 mph - N/A   Clear
2:54 AM 46.9 °F - 44.1 °F 90% 30.14 in 10.0 mi ENE 5.8 mph - N/A   Clear
3:54 AM 46.9 °F - 44.1 °F 90% 30.16 in 10.0 mi ENE 4.6 mph - N/A   Clear
4:54 AM 45.0 °F - 44.1 °F 97% 30.17 in 10.0 mi Calm Calm - N/A   Clear
5:39 AM 46.4 °F 45.2 °F 44.6 °F 93% 30.14 in 10.0 mi ENE 3.5 mph - N/A   Scattered Clouds
5:51 AM 46.4 °F 44.3 °F 44.6 °F 93% 30.14 in 10.0 mi ENE 4.6 mph - N/A   Mostly Cloudy
5:54 AM 46.0 °F 43.9 °F 44.1 °F 93% 30.17 in 10.0 mi ENE 4.6 mph - N/A   Mostly Cloudy
6:27 AM 44.6 °F 43.1 °F 42.8 °F 93% 30.14 in 10.0 mi East 3.5 mph - N/A   Scattered Clouds
6:54 AM 46.0 °F - 44.1 °F 93% 30.19 in 10.0 mi Calm Calm - N/A   Clear
7:54 AM 50.0 °F - 48.0 °F 93% 30.21 in 10.0 mi Calm Calm - N/A   Clear
8:54 AM 53.1 °F - 50.0 °F 89% 30.21 in 10.0 mi SE 5.8 mph - N/A   Clear
9:54 AM 57.0 °F - 52.0 °F 83% 30.22 in 10.0 mi Calm Calm - N/A   Clear
10:54 AM 60.1 °F - 52.0 °F 75% 30.21 in 10.0 mi SSE 3.5 mph - N/A   Clear
11:54 AM 64.0 °F - 51.1 °F 63% 30.20 in 10.0 mi WSW 3.5 mph - N/A   Clear
12:54 PM 64.0 °F - 51.1 °F 63% 30.18 in 10.0 mi WNW 6.9 mph - N/A   Clear
1:54 PM 66.9 °F - 48.0 °F 51% 30.17 in 10.0 mi WNW 8.1 mph - N/A   Clear
2:54 PM 69.1 °F - 50.0 °F 51% 30.15 in 10.0 mi WNW 8.1 mph - N/A   Clear
3:54 PM 69.1 °F - 48.0 °F 47% 30.15 in 10.0 mi West 8.1 mph - N/A   Clear
4:54 PM 66.0 °F - 52.0 °F 60% 30.15 in 10.0 mi NW 10.4 mph - N/A   Clear
5:54 PM 64.9 °F - 50.0 °F 58% 30.17 in 10.0 mi WNW 8.1 mph - N/A   Clear
6:54 PM 63.0 °F - 51.1 °F 65% 30.17 in 10.0 mi Calm Calm - N/A   Clear
7:54 PM 61.0 °F - 53.1 °F 75% 30.20 in 10.0 mi WNW 5.8 mph - N/A   Clear
8:54 PM 57.9 °F - 52.0 °F 81% 30.21 in 10.0 mi NW 4.6 mph - N/A   Clear
9:54 PM 59.0 °F - 51.1 °F 75% 30.23 in 10.0 mi Calm Calm - N/A   Clear
10:54 PM 59.0 °F - 50.0 °F 72% 30.23 in 10.0 mi ENE 4.6 mph - N/A   Clear
11:54 PM 57.9 °F - 50.0 °F 75% 30.21 in 10.0 mi East 4.6 mph - N/A   Clear